Vertical_Velocity
1 0 0 -2 -2 -2 -2 -0 -3 -5 5 22 -3 3 -3 -2 -4 -4 -5 -3 -2 -4 -3 -3 -4 -3 -2 -5 1 -3 -1 -2 -1 -3 1 -3 -2 0
-0 0 -3 -1 -2 -3 -2 -2 -3 -8 -7 6 11 2 1 -0 -3 -4 -3 -4 -2 -1 -3 -3 -4 -3 -4 -1 -4 -3 -4 -6 -1 -5 -1 -1 -4 -1
2 -3 2 2 -2 -2 -3 -2 -1 -5 -6 6 -1 1 5 1 4 -0 -2 -1 -1 -1 -4 -3 -6 -4 -3 -4 1 -3 -4 -5 -5 -2 -2 -3 -4 -2
-3 -2 -2 4 -1 -1 -2 -2 0 -3 -6 -6 1 -1 -0 -0 -2 1 -2 -1 -3 -0 -2 -5 -6 -3 -8 -5 -3 -2 -2 3 -1 -2 -3 -5 -3 -4
-1 -1 3 6 -3 -0 -0 1 -0 -1 -3 -8 -4 -1 -1 -2 -2 -4 -2 2 -1 -4 -5 -3 -7 -3 -3 -3 -3 -2 3 -3 1 3 -3 -4 -5 -4
4 4 1 -3 3 1 -1 -3 -1 2 -2 -5 -4 -2 -1 1 -8 -9 10 -3 8 -8 -9 -6 -3 -1 -1 -3 -3 -0 -3 -3 2 3 2 -2 -5 -3
9 -0 0 1 1 -2 -3 3 2 1 -1 -3 -3 -0 -2 0 -7 5 -6 -2 10 -7 -4 2 -7 -4 -5 -5 -1 -1 -5 -3 4 4 2 1 -1 0
-2 0 -0 -2 -4 0 1 -1 -1 -2 -3 -4 1 -5 1 -4 -1 -4 -1 -6 6 1 -8 2 -8 7 -1 -1 -1 -9 -5 -4 1 6 4 -0 -1 1
0 -1 -5 -3 -2 1 1 1 4 2 -6 -5 -6 -3 1 -7 -9 -7 -2 -3 2 1 -10 1 -2 12 -8 4 -6 -5 -4 -2 -2 5 3 4 0 -0
-1 -1 0 2 1 1 1 -0 3 2 -2 -4 -7 -7 -6 -6 -3 -1 -3 1 5 6 -16 -11 9 7 5 4 -8 -4 -4 -3 -2 2 6 4 -0 1
-1 1 2 4 1 1 2 2 1 -2 -3 -5 -5 -4 -2 -2 -5 -3 -3 -4 3 2 -3 -14 1 4 0 6 -7 -3 -3 -3 1 3 6 6 -1 -3
-2 1 -2 -1 0 -2 -2 0 5 4 2 -1 -4 -2 -3 -2 -6 -10 -8 -5 -7 1 -1 -6 3 -10 7 7 -0 -6 -4 -8 1 0 3 4 1 -1
-0 3 -0 -0 -2 -0 1 0 -0 -0 -3 1 2 1 3 -1 -2 -4 -6 -7 -2 -3 -8 -12 8 4 -6 -3 16 -0 -2 -6 -4 -3 -2 2 3 0
3 -0 -1 4 2 1 1 -0 -1 -1 1 2 1 -2 0 1 -2 -4 -3 -2 -2 -6 2 -5 0 -2 1 4 -3 11 -6 -2 -3 -3 0 -2 2 -1
2 -1 2 3 5 2 2 2 2 1 1 1 1 -2 -5 -0 -0 2 3 -1 2 -2 -7 -4 -0 4 -2 1 2 5 1 7 -9 -1 -2 2 1 -2
1 -2 -0 1 1 -2 -3 -1 -1 0 0 2 3 -0 -2 1 0 -3 0 -0 2 6 -10 -7 1 -2 2 -3 -2 2 0 -3 -4 -5 5 3 -1 -2
0 0 1 4 1 1 2 2 1 -1 -3 -6 -4 -1 -1 -1 -3 -4 -3 1 -3 -1 3 -7 -5 -0 -2 -5 6 1 2 -4 -0 1 1 1 -2 -2
1 5 3 3 2 2 0 -2 -0 -3 -4 -3 -3 -2 -3 -4 0 -2 -2 -3 -3 -2 -1 0 4 4 -1 -12 -2 0 -3 1 -0 -2 -2 4 1 -12
2 3 -1 1 3 0 -1 0 -2 -4 -3 -2 -2 -2 -2 -3 -0 -1 -2 -2 -4 -2 -3 1 -0 0 3 2 -4 -0 -0 -2 -1 -2 -2 -3 4 -6
0 2 1 1 -0 -0 -0 -1 -2 -3 -3 -2 -4 -1 -1 -3 1 -0 -0 -0 -1 -1 -2 -1 0 1 1 3 4 -4 -6 4 -0 1 -3 -2 -1 4
-2 -1 -0 -1 0 0 -0 1 -0 -2 -0 -1 -2 -2 -1 1 -0 -1 -3 -3 -2 -0 0 1 2 1 1 -1 2 0 -5 -3 0 1 0 1 -0 1
-5 -3 -2 -1 -1 -1 1 -2 -4 -3 -2 -2 -2 -1 -0 -0 -1 -1 1 1 -1 0 -1 -0 2 4 2 0 2 1 -1 -2 -2 -0 1 0 -0 10
-4 -3 -2 -1 -1 -0 -0 -1 -1 0 -1 -1 -1 -1 0 -1 -3 -2 -2 -3 -0 1 4 4 -1 -2 0 -0 2 4 -0 -0 2 -2 -5 -2 -8 -10
Height
5699 5697 5694 5690 5687 5683 5678 5674 5670 5667 5663 5657 5649 5643 5637 5631 5625 5620 5614 5608 5602 5596 5590 5584 5579 5572 5567 5562 5556 5550 5544 5538 5532 5524 5519 5513 5508 5504
5689 5686 5682 5679 5675 5670 5665 5660 5655 5650 5646 5640 5634 5628 5621 5615 5608 5602 5595 5589 5583 5576 5569 5563 5557 5549 5542 5534 5526 5518 5510 5502 5495 5486 5479 5472 5467 5462
5677 5675 5671 5666 5661 5656 5651 5646 5640 5634 5630 5624 5616 5609 5604 5596 5589 5582 5575 5569 5562 5553 5545 5538 5529 5521 5512 5502 5492 5481 5473 5465 5458 5453 5447 5442 5438 5434
5667 5662 5658 5653 5648 5642 5636 5631 5625 5618 5613 5608 5600 5592 5585 5577 5569 5563 5555 5546 5537 5526 5517 5507 5498 5487 5475 5466 5456 5449 5444 5441 5438 5434 5429 5425 5421 5419
5655 5650 5647 5641 5635 5627 5622 5617 5610 5603 5596 5589 5582 5574 5566 5558 5550 5541 5533 5523 5510 5495 5484 5474 5461 5451 5441 5435 5432 5431 5427 5425 5422 5418 5414 5410 5406 5405
5644 5639 5633 5626 5619 5614 5608 5601 5595 5588 5579 5571 5564 5556 5547 5538 5529 5519 5513 5497 5485 5465 5454 5446 5432 5426 5419 5418 5416 5413 5410 5406 5404 5402 5400 5397 5395 5394
5630 5625 5619 5613 5607 5600 5594 5587 5579 5571 5562 5554 5546 5538 5527 5517 5506 5495 5483 5470 5456 5435 5428 5425 5413 5409 5401 5398 5395 5393 5391 5389 5388 5387 5386 5384 5383 5383
5619 5612 5606 5599 5593 5585 5577 5569 5561 5553 5543 5535 5527 5516 5505 5492 5479 5466 5455 5443 5437 5414 5409 5409 5395 5392 5383 5379 5374 5372 5370 5370 5371 5370 5370 5368 5368 5369
5605 5599 5592 5585 5577 5569 5562 5554 5545 5534 5523 5514 5504 5491 5481 5465 5455 5440 5429 5422 5414 5400 5392 5396 5376 5374 5365 5361 5355 5351 5349 5349 5351 5352 5353 5352 5351 5352
5592 5585 5578 5570 5562 5555 5548 5539 5529 5516 5505 5493 5479 5465 5452 5439 5429 5422 5414 5408 5398 5385 5367 5375 5361 5357 5350 5343 5336 5333 5330 5330 5331 5333 5335 5335 5334 5335
5578 5570 5563 5556 5549 5542 5532 5523 5511 5497 5482 5467 5454 5441 5431 5422 5413 5406 5396 5388 5381 5370 5348 5347 5344 5339 5335 5329 5322 5316 5313 5313 5313 5315 5319 5320 5319 5320
5563 5555 5548 5541 5533 5523 5514 5504 5492 5477 5462 5446 5432 5423 5416 5406 5396 5386 5377 5369 5358 5354 5336 5335 5329 5321 5325 5318 5311 5304 5302 5299 5300 5302 5304 5305 5305 5306
5551 5543 5534 5526 5516 5506 5495 5483 5470 5457 5443 5434 5425 5416 5405 5393 5381 5368 5357 5347 5340 5332 5322 5317 5317 5311 5308 5308 5305 5298 5294 5291 5290 5289 5289 5291 5292 5292
5538 5529 5520 5510 5498 5486 5474 5463 5450 5438 5432 5425 5416 5406 5395 5381 5367 5354 5340 5330 5322 5315 5311 5305 5303 5300 5298 5297 5296 5292 5287 5284 5281 5279 5278 5278 5279 5280
5521 5511 5501 5490 5479 5467 5456 5444 5435 5430 5424 5416 5406 5395 5382 5369 5354 5342 5327 5317 5311 5302 5298 5295 5293 5292 5290 5289 5288 5284 5280 5277 5269 5269 5268 5268 5269 5269
5501 5490 5479 5469 5458 5447 5437 5431 5428 5423 5417 5408 5397 5384 5370 5356 5341 5327 5317 5307 5302 5297 5290 5288 5286 5284 5282 5280 5277 5275 5269 5266 5263 5260 5261 5262 5262 5263
5482 5469 5457 5447 5437 5430 5427 5426 5422 5416 5408 5398 5386 5373 5360 5347 5332 5317 5306 5299 5294 5291 5288 5283 5280 5278 5275 5271 5269 5266 5263 5260 5259 5258 5258 5258 5259 5260
5458 5444 5434 5427 5424 5423 5423 5421 5417 5410 5401 5390 5377 5365 5354 5342 5328 5314 5303 5295 5291 5288 5286 5283 5280 5277 5272 5266 5261 5261 5258 5258 5257 5256 5256 5256 5255 5251
5431 5423 5419 5419 5420 5421 5420 5416 5411 5403 5394 5382 5370 5360 5350 5339 5328 5316 5306 5298 5292 5288 5285 5282 5278 5275 5272 5268 5263 5261 5259 5257 5256 5254 5252 5251 5251 5247
5413 5412 5413 5416 5418 5418 5416 5412 5406 5397 5388 5376 5366 5357 5348 5338 5329 5319 5311 5304 5297 5291 5286 5281 5278 5274 5271 5268 5264 5259 5255 5254 5252 5250 5249 5248 5246 5245
5411 5413 5415 5417 5417 5415 5413 5408 5401 5393 5384 5373 5363 5355 5346 5338 5330 5321 5313 5306 5299 5294 5289 5284 5279 5275 5270 5266 5263 5258 5253 5250 5249 5248 5246 5243 5240 5237
5417 5417 5417 5417 5415 5413 5410 5404 5398 5390 5380 5370 5361 5354 5346 5337 5330 5322 5315 5309 5302 5296 5290 5285 5280 5274 5269 5263 5259 5255 5252 5248 5245 5243 5241 5238 5234 5229
5422 5421 5419 5417 5414 5411 5407 5402 5395 5388 5380 5371 5361 5353 5345 5337 5330 5322 5316 5309 5303 5297 5292 5286 5279 5272 5266 5260 5256 5254 5250 5247 5244 5239 5234 5228 5220 5211